This is the latest recevied weather packets stored in our database for station/object OM6ABF-12. If no packets are shown the sender has not sent any weather packets the latest 10 day(s).
| Time | Temp. | Humidity | Pressure | Rain* | Wind** | Luminosity | Snow |
|---|---|---|---|---|---|---|---|
| 1777156217 | 7.22° C | 36% | 1021.5 hPa | - | - | - | - |
| 1777155259 | 7.78° C | 35% | 1021.6 hPa | - | - | - | - |
| 1777154302 | 7.78° C | 34% | 1021.8 hPa | - | - | - | - |
| 1777153344 | 7.78° C | 35% | 1021.8 hPa | - | - | - | - |
| 1777152387 | 7.78° C | 33% | 1021.6 hPa | - | - | - | - |
| 1777151430 | 7.78° C | 36% | 1021.8 hPa | - | - | - | - |
| 1777150473 | 7.78° C | 38% | 1022 hPa | - | - | - | - |
| 1777149516 | 7.78° C | 38% | 1022 hPa | - | - | - | - |
| 1777148558 | 7.78° C | 39% | 1022.1 hPa | - | - | - | - |
| 1777147601 | 7.78° C | 40% | 1022.2 hPa | - | - | - | - |
| 1777146643 | 7.78° C | 41% | 1022.3 hPa | - | - | - | - |
| 1777145686 | 7.78° C | 42% | 1022.4 hPa | - | - | - | - |
| 1777144728 | 8.33° C | 44% | 1022.5 hPa | - | - | - | - |
| 1777143771 | 8.33° C | 45% | 1022.6 hPa | - | - | - | - |
| 1777142814 | 8.33° C | 49% | 1022.7 hPa | - | - | - | - |
| 1777141857 | 8.89° C | 48% | 1022.6 hPa | - | - | - | - |
| 1777140899 | 8.89° C | 49% | 1022.5 hPa | - | - | - | - |
| 1777139941 | 9.44° C | 50% | 1022.4 hPa | - | - | - | - |
| 1777138977 | 9.44° C | 48% | 1022.4 hPa | - | - | - | - |
| 1777138019 | 10° C | 48% | 1022.3 hPa | - | - | - | - |
| 1777137061 | 10° C | 48% | 1022.3 hPa | - | - | - | - |
| 1777136103 | 10.56° C | 46% | 1022.4 hPa | - | - | - | - |
| 1777135145 | 10.56° C | 47% | 1022.5 hPa | - | - | - | - |
| 1777134189 | 11.11° C | 45% | 1022.6 hPa | - | - | - | - |
| 1777133233 | 11.67° C | 44% | 1022.5 hPa | - | - | - | - |
* Rain since midnight (hover to see other rain measurements)
** Current wind speed in m/s (hover to see current wind gust speed)